FW0710 Weather Reports


Display with metric or nautical units.
time (UTC)temp
F
wind
direction
speed
MPH
gust
MPH
rain 1hr
in
rain 24hr
in
rain mn
in
humidity
%
barometer
mb
20260502164042 59 0 0.0 4.0 0.00 0.00 0.00 45 1013.4
20260502163545 59 0 0.0 1.0 0.00 0.00 0.00 48 1013.5
20260502163052 59 0 0.0 1.0 0.00 0.00 0.00 50 1013.5
20260502162542 58 0 0.0 2.0 0.00 0.00 0.00 48 1013.5
20260502162043 58 0 0.0 2.0 0.00 0.00 0.00 45 1013.5
20260502161550 59 0 0.0 1.0 0.00 0.00 0.00 45 1013.7
20260502161041 58 0 0.0 3.0 0.00 0.00 0.00 48 1013.7
20260502160541 58 0 0.0 3.0 0.00 0.00 0.00 48 1013.8
20260502152042 55 0 0.0 2.0 0.00 0.00 0.00 55 1014.2
20260502151610 54 0 0.0 2.0 0.00 0.00 0.00 56 1014.4
20260502151041 54 0 0.0 2.0 0.00 0.00 0.00 55 1014.4
20260502150542 53 0 0.0 2.0 0.00 0.00 0.00 57 1014.6
20260502150126 53 0 0.0 2.0 0.00 0.00 0.00 55 1014.7
20260502130543 36 0 0.0 0.0 0.00 0.00 0.00 95 1015.9
20260502123542 29 0 0.0 0.0 0.00 0.00 0.00 96 1016.4
20260502123054 28 0 0.0 0.0 0.00 0.00 0.00 96 1016.5
20260502122543 27 0 0.0 0.0 0.00 0.00 0.00 95 1016.4
20260502122043 27 0 0.0 0.0 0.00 0.00 0.00 94 1016.5
20260502121604 26 0 0.0 0.0 0.00 0.00 0.00 94 1016.4
20260502121044 26 0 0.0 0.0 0.00 0.00 0.00 94 1016.5
20260502120544 25 0 0.0 0.0 0.00 0.00 0.00 94 1016.5
20260502120113 25 0 0.0 0.0 0.00 0.00 0.00 93 1016.5
20260502115545 24 0 0.0 0.0 0.00 0.00 0.00 93 1016.5
20260502115043 24 0 0.0 0.0 0.00 0.00 0.00 93 1016.5
20260502114622 24 0 0.0 0.0 0.00 0.00 0.00 93 1016.5
20260502114100 24 0 0.0 0.0 0.00 0.00 0.00 93 1016.7
20260502113543 24 0 0.0 0.0 0.00 0.00 0.00 93 1016.7
20260502113112 23 0 0.0 0.0 0.00 0.00 0.00 93 1016.7
20260502112542 23 0 0.0 0.0 0.00 0.00 0.00 92 1016.7
20260502112046 23 0 0.0 0.0 0.00 0.00 0.00 92 1016.6
20260502111555 23 0 0.0 0.0 0.00 0.00 0.00 92 1016.7
20260502111043 23 0 0.0 0.0 0.00 0.00 0.00 92 1016.7
20260502110546 23 0 0.0 0.0 0.00 0.00 0.00 92 1016.8
20260502110053 23 0 0.0 0.0 0.00 0.00 0.00 92 1016.8
20260502105543 23 0 0.0 0.0 0.00 0.00 0.00 92 1016.9
20260502105043 23 0 0.0 0.0 0.00 0.00 0.00 92 1017.0
20260502104550 23 0 0.0 0.0 0.00 0.00 0.00 92 1017.1
20260502104043 23 0 0.0 0.0 0.00 0.00 0.00 91 1017.1
20260502103543 23 0 0.0 0.0 0.00 0.00 0.00 91 1017.2
20260502103112 23 0 0.0 0.0 0.00 0.00 0.00 91 1017.2
20260502102542 23 0 0.0 0.0 0.00 0.00 0.00 91 1017.3
20260502102045 23 0 0.0 0.0 0.00 0.00 0.00 91 1017.4
20260502101553 23 0 0.0 0.0 0.00 0.00 0.00 91 1017.4
20260502101043 23 0 0.0 0.0 0.00 0.00 0.00 91 1017.5
20260502100547 23 0 0.0 0.0 0.00 0.00 0.00 91 1017.5
20260502091043 24 0 0.0 0.0 0.00 0.00 0.00 90 1017.8
20260502090543 24 0 0.0 0.0 0.00 0.00 0.00 90 1017.7
20260502071041 26 0 0.0 0.0 0.00 0.00 0.00 86 1018.2
20260502070543 26 0 0.0 0.0 0.00 0.00 0.00 86 1018.5
20260502070050 26 0 0.0 0.0 0.00 0.00 0.00 85 1018.4
20260502065542 26 0 0.0 0.0 0.00 0.00 0.00 86 1018.4
20260502065040 26 0 0.0 0.0 0.00 0.00 0.00 86 1018.5
20260502064554 26 0 0.0 0.0 0.00 0.00 0.00 85 1018.6
20260502064043 27 0 0.0 0.0 0.00 0.00 0.00 85 1018.6
20260502063543 27 0 0.0 0.0 0.00 0.00 0.00 86 1018.7
20260502063055 27 0 0.0 0.0 0.00 0.00 0.00 86 1018.6
20260502062543 27 0 0.0 0.0 0.00 0.00 0.00 86 1018.5
20260502062045 27 0 0.0 0.0 0.00 0.00 0.00 86 1018.5
20260502061555 27 0 0.0 0.0 0.00 0.00 0.00 85 1018.6
20260502061040 27 0 0.0 0.0 0.00 0.00 0.00 84 1018.5
20260502060542 27 0 0.0 0.0 0.00 0.00 0.00 83 1018.6
20260502060050 27 0 0.0 0.0 0.00 0.00 0.00 82 1018.7
20260502055543 27 0 0.0 0.0 0.00 0.00 0.00 82 1018.6
20260502055041 28 0 0.0 0.0 0.00 0.00 0.00 82 1018.7
20260502054607 28 0 0.0 0.0 0.00 0.00 0.00 82 1018.6
20260502054040 28 0 0.0 0.0 0.00 0.00 0.00 81 1018.6
20260502053541 28 0 0.0 0.0 0.00 0.00 0.00 79 1018.7
20260502053051 29 0 0.0 0.0 0.00 0.00 0.00 80 1018.6
20260502052540 29 0 0.0 0.0 0.00 0.00 0.00 81 1018.7
20260502052042 29 0 0.0 0.0 0.00 0.00 0.00 81 1018.7
20260502051551 29 0 0.0 0.0 0.00 0.00 0.00 82 1018.7
20260502051040 28 0 0.0 0.0 0.00 0.00 0.00 81 1018.7
20260502050545 28 0 0.0 0.0 0.00 0.00 0.00 81 1018.7
20260502050052 29 0 0.0 0.0 0.00 0.00 0.00 80 1018.8
20260502045545 29 0 0.0 0.0 0.00 0.00 0.00 79 1018.7
20260502045039 29 0 0.0 0.0 0.00 0.00 0.00 78 1018.8
20260502044549 30 0 0.0 0.0 0.00 0.00 0.00 78 1018.8
20260502044045 30 0 0.0 0.0 0.00 0.00 0.00 77 1018.9
20260502043542 30 0 0.0 0.0 0.00 0.00 0.00 77 1018.8
20260502043057 31 0 0.0 0.0 0.00 0.00 0.00 76 1018.9
20260502042540 31 0 0.0 0.0 0.00 0.00 0.00 75 1018.9
20260502042040 32 0 0.0 0.0 0.00 0.00 0.00 76 1018.9
20260502041549 32 0 0.0 0.0 0.00 0.00 0.00 76 1019.0
20260502041040 32 0 0.0 0.0 0.00 0.00 0.00 77 1019.0
20260502040540 32 0 0.0 0.0 0.00 0.00 0.00 75 1019.1
20260502040052 32 0 0.0 0.0 0.00 0.00 0.00 75 1019.1
20260502035540 32 0 0.0 0.0 0.00 0.00 0.00 75 1019.0
20260502035040 32 0 0.0 0.0 0.00 0.00 0.00 74 1019.0
20260502034551 32 0 0.0 0.0 0.00 0.00 0.00 72 1019.1
20260502034040 33 0 0.0 0.0 0.00 0.00 0.00 72 1019.1
20260502033539 33 0 0.0 0.0 0.00 0.00 0.00 70 1019.1
20260502033049 34 0 0.0 0.0 0.00 0.00 0.00 69 1019.1
20260502032539 34 0 0.0 0.0 0.00 0.00 0.00 70 1019.1
20260502032041 35 0 0.0 0.0 0.00 0.00 0.00 68 1019.0
20260502031548 35 0 0.0 0.0 0.00 0.00 0.00 67 1019.1
20260502031041 36 0 0.0 0.0 0.00 0.00 0.00 66 1019.0
20260502030543 37 0 0.0 0.0 0.00 0.00 0.00 65 1019.1
20260502030103 38 0 0.0 0.0 0.00 0.00 0.00 62 1019.0
20260502025542 39 0 0.0 0.0 0.00 0.00 0.00 61 1019.1
20260502025042 40 0 0.0 0.0 0.00 0.00 0.00 59 1019.1
20260502024547 41 0 0.0 0.0 0.00 0.00 0.00 57 1019.1
20260502024042 42 0 0.0 0.0 0.00 0.00 0.00 54 1019.1
20260502023545 42 0 0.0 0.0 0.00 0.00 0.00 54 1019.1
20260502023049 43 0 0.0 0.0 0.00 0.00 0.00 51 1019.0
20260502022542 43 0 0.0 0.0 0.00 0.00 0.00 51 1019.1
20260502022042 44 0 0.0 0.0 0.00 0.00 0.00 50 1019.0
20260502021555 45 0 0.0 0.0 0.00 0.00 0.00 49 1018.9
20260502021042 45 0 0.0 0.0 0.00 0.00 0.00 47 1018.9
20260502020543 46 0 0.0 0.0 0.00 0.00 0.00 47 1018.8
20260502020051 46 0 0.0 0.0 0.00 0.00 0.00 47 1018.8
20260502015545 46 0 0.0 0.0 0.00 0.00 0.00 47 1018.7
20260502015043 46 0 0.0 0.0 0.00 0.00 0.00 47 1018.7
20260502014550 46 0 0.0 0.0 0.00 0.00 0.00 47 1018.5
20260502014042 46 0 0.0 0.0 0.00 0.00 0.00 47 1018.6
20260502013542 46 0 0.0 0.0 0.00 0.00 0.00 47 1018.6
20260502013056 47 0 0.0 0.0 0.00 0.00 0.00 46 1018.7
20260502012545 47 0 0.0 0.0 0.00 0.00 0.00 46 1018.7
20260502012042 47 0 0.0 0.0 0.00 0.00 0.00 47 1018.7
20260502011549 47 0 0.0 0.0 0.00 0.00 0.00 46 1018.7
20260502011044 48 0 0.0 0.0 0.00 0.00 0.00 44 1018.7
20260502010542 49 0 0.0 1.0 0.00 0.00 0.00 44 1018.7
20260502010054 49 0 0.0 1.0 0.00 0.00 0.00 43 1018.7
20260502005542 50 0 0.0 1.0 0.00 0.00 0.00 42 1018.7
20260502005042 50 0 0.0 1.0 0.00 0.00 0.00 43 1018.8
20260502004549 50 0 0.0 0.0 0.00 0.00 0.00 43 1018.8
20260502004043 50 0 0.0 5.0 0.00 0.00 0.00 41 1018.7
20260502003544 51 0 0.0 5.0 0.00 0.00 0.00 41 1018.7
20260502003049 51 0 0.0 1.0 0.00 0.00 0.00 42 1018.7
20260502002542 51 0 0.0 1.0 0.00 0.00 0.00 39 1018.7
20260502002042 51 0 0.0 1.0 0.00 0.00 0.00 39 1018.7
20260502001549 51 0 0.0 4.0 0.00 0.00 0.00 40 1018.6
20260502001042 52 0 0.0 4.0 0.00 0.00 0.00 41 1018.6
20260502000542 52 0 0.0 4.0 0.00 0.00 0.00 41 1018.5
20260502000050 52 0 0.0 6.0 0.00 0.00 0.00 40 1018.5
20260501235543 52 0 0.0 6.0 0.00 0.00 0.00 40 1018.4
20260501235039 52 304 0.0 6.0 0.00 0.00 0.00 40 1018.4
20260501234551 52 0 0.0 5.0 0.00 0.00 0.00 40 1018.4
20260501234042 52 0 0.0 4.0 0.00 0.00 0.00 39 1018.5
20260501233542 52 0 0.0 3.0 0.00 0.00 0.00 41 1018.5
20260501233055 52 0 0.0 0.0 0.00 0.00 0.00 39 1018.4
20260501232542 52 0 0.0 5.0 0.00 0.00 0.00 38 1018.4
20260501232039 52 0 0.0 6.0 0.00 0.00 0.00 39 1018.4
20260501231545 52 0 0.0 6.0 0.00 0.00 0.00 38 1018.5
20260501231043 52 0 1.0 8.0 0.00 0.00 0.00 39 1018.4
20260501230542 52 0 1.0 8.0 0.00 0.00 0.00 40 1018.4
20260501230049 53 0 0.0 2.0 0.00 0.00 0.00 39 1018.4
20260501225542 53 0 0.0 3.0 0.00 0.00 0.00 41 1018.3
20260501225042 52 0 0.0 3.0 0.00 0.00 0.00 41 1018.4
20260501224552 52 0 0.0 3.0 0.00 0.00 0.00 39 1018.3
20260501224042 53 0 0.0 0.0 0.00 0.00 0.00 38 1018.4
20260501223542 53 0 0.0 7.0 0.00 0.00 0.00 40 1018.4
20260501223057 53 0 0.0 7.0 0.00 0.00 0.00 38 1018.4
20260501222546 53 0 0.0 4.0 0.00 0.00 0.00 39 1018.5
20260501222044 52 0 0.0 9.0 0.00 0.00 0.00 42 1018.4
20260501221545 52 0 0.0 9.0 0.00 0.00 0.00 40 1018.6
20260501221042 53 0 1.0 9.0 0.00 0.00 0.00 42 1018.5
20260501220542 52 0 0.0 1.0 0.00 0.00 0.00 43 1018.6
20260501220054 52 0 0.0 5.0 0.00 0.00 0.00 40 1018.6
20260501215546 53 0 0.0 5.0 0.00 0.00 0.00 42 1018.7
20260501215046 52 0 0.0 4.0 0.00 0.00 0.00 40 1018.7
20260501214557 52 0 0.0 4.0 0.00 0.00 0.00 41 1018.7
20260501214042 52 0 0.0 8.0 0.00 0.00 0.00 40 1018.7
20260501213541 52 0 0.0 14.0 0.00 0.00 0.00 43 1018.8
20260501213100 52 0 1.0 14.0 0.00 0.00 0.00 43 1018.9
20260501212543 52 0 0.0 6.0 0.00 0.00 0.00 43 1018.9
20260501212043 52 0 0.0 10.0 0.00 0.00 0.00 44 1018.9
20260501211558 52 0 0.0 10.0 0.00 0.00 0.00 42 1018.8
20260501211042 52 352 0.0 10.0 0.00 0.00 0.00 42 1018.9
20260501210545 52 347 1.0 10.0 0.00 0.00 0.00 43 1018.9
20260501210052 53 337 3.0 9.0 0.00 0.00 0.00 43 1019.0
20260501205543 52 0 0.0 4.0 0.00 0.00 0.00 43 1019.0
20260501205047 52 0 0.0 4.0 0.00 0.00 0.00 40 1019.0
20260501204607 52 0 0.0 11.0 0.00 0.00 0.00 44 1019.0
20260501204045 51 0 1.0 11.0 0.00 0.00 0.00 43 1019.1
20260501203542 51 344 1.0 11.0 0.00 0.00 0.00 43 1019.1
20260501203100 51 0 0.0 14.0 0.00 0.00 0.00 43 1019.0
20260501202543 51 0 0.0 14.0 0.00 0.00 0.00 44 1019.1
20260501202043 52 0 1.0 14.0 0.00 0.00 0.00 41 1019.2
20260501201549 51 333 0.0 5.0 0.00 0.00 0.00 44 1019.2
20260501201042 51 272 0.0 3.0 0.00 0.00 0.00 42 1019.2
20260501200542 51 0 0.0 3.0 0.00 0.00 0.00 44 1019.4
20260501200049 50 0 0.0 10.0 0.00 0.00 0.00 44 1019.3
20260501195542 50 0 0.0 10.0 0.00 0.00 0.00 42 1019.3
20260501195045 51 0 0.0 8.0 0.00 0.00 0.00 46 1019.3
20260501194551 49 0 0.0 10.0 0.00 0.00 0.00 44 1019.3
20260501194043 49 0 0.0 10.0 0.00 0.00 0.00 44 1019.3
20260501193546 49 9 0.0 1.0 0.00 0.00 0.00 44 1019.2
20260501193049 49 0 0.0 8.0 0.00 0.00 0.00 46 1019.4
20260501192542 49 0 0.0 8.0 0.00 0.00 0.00 43 1019.5
20260501192042 50 0 0.0 8.0 0.00 0.00 0.00 43 1019.5
20260501191550 50 0 0.0 8.0 0.00 0.00 0.00 45 1019.5
20260501191042 50 0 1.0 8.0 0.00 0.00 0.00 46 1019.4
20260501190541 49 0 0.0 3.0 0.00 0.00 0.00 43 1019.5
20260501190050 50 0 0.0 3.0 0.00 0.00 0.00 42 1019.5
20260501185539 49 0 0.0 3.0 0.00 0.00 0.00 44 1019.6
20260501185039 48 0 0.0 7.0 0.00 0.00 0.00 47 1019.5
20260501184549 48 0 0.0 7.0 0.00 0.00 0.00 45 1019.6
20260501184042 48 347 0.0 3.0 0.00 0.00 0.00 47 1019.6
20260501183542 48 0 0.0 5.0 0.00 0.00 0.00 44 1019.6
20260501183049 48 0 0.0 8.0 0.00 0.00 0.00 45 1019.8
20260501182545 48 343 0.0 8.0 0.00 0.00 0.00 45 1019.8
20260501182043 49 313 0.0 8.0 0.00 0.00 0.00 45 1019.8
20260501181603 48 0 0.0 8.0 0.00 0.00 0.00 46 1019.9
20260501181042 48 0 1.0 8.0 0.00 0.00 0.00 44 1020.0
20260501180542 48 0 0.0 1.0 0.00 0.00 0.00 46 1019.9
20260501175543 48 0 0.0 8.0 0.00 0.00 0.00 48 1020.1
20260501175044 49 0 0.0 6.0 0.00 0.00 0.00 46 1020.0
20260501174552 48 0 0.0 9.0 0.00 0.00 0.00 46 1019.9
20260501174042 48 0 1.0 9.0 0.00 0.00 0.00 46 1019.9
20260501173543 48 327 1.0 7.0 0.00 0.00 0.00 46 1020.0
20260501173051 47 0 0.0 9.0 0.00 0.00 0.00 50 1020.0
20260501172543 47 0 1.0 9.0 0.00 0.00 0.00 47 1020.1
20260501172043 47 0 1.0 9.0 0.00 0.00 0.00 49 1020.2